Location: Battul?varig?dem
(16.7733°N, 80.7859°E)
Time: 18:44:34
(UTC+00:00)

Daily predictions for brighter satellites

Satellite Brightness Start Highest point End
(mag) Time Altitude Azimuth Time Altitude Azimuth Time Altitude Azimuth
Cosmos 1420 Rocket 4.3 13:22:20 10° SSW 13:27:31 77° WNW 13:32:42 10° N
CSL-04 Debris 4.4 13:25:51 10° SSE 13:31:04 53° ENE 13:36:18 10° N
Cosmos 407 Rocket 4.1 13:26:29 10° N 13:31:26 39° ENE 13:36:22 10° SE
Cosmos 1833 Rocket 4.5 13:29:11 10° NE 13:32:02 14° ENE 13:34:52 10° E
Cosmos 1452 Rocket 3.5 13:27:20 10° S 13:32:34 75° ESE 13:37:50 10° NNE
Cosmos 2297 4.0 13:27:21 10° S 13:32:39 43° ESE 13:37:59 10° NE
KM-V1 4.3 13:30:53 10° W 13:32:40 26° SSW 13:34:41 10° SE
Meteor 2-4 Rocket 4.0 13:32:20 10° SSE 13:37:21 41° E 13:42:19 10° NNE
Cosmos 2369 Rocket 3.9 13:38:22 10° ESE 13:39:38 11° E 13:40:53 10° E
Okean 1-7 3.4 13:38:09 10° SSW 13:42:23 66° W 13:46:36 10° N
SL-4 R/B 4.3 13:38:40 10° WSW 13:42:32 32° NW 13:46:40 10° NNE
STARLINK-1095 4.4 13:40:39 10° NNW 13:44:28 36° NE 13:47:52 12° ESE
Lacrosse 5 4.0 13:43:56 10° NNE 13:45:22 11° NE 13:46:48 10° ENE
COSMOS 2406 3.9 13:40:43 10° N 13:45:55 36° ENE 13:50:54 11° SE
GPS 2-14 Rocket1 2.7 13:43:13 10° WSW 13:47:23 88° SSE 13:51:33 10° ENE
Meteor 1-19 Rocket 4.4 13:42:12 10° S 13:47:47 79° W 13:53:32 10° N
Cosmos 2082 Rocket 4.1 13:47:39 10° NE 13:49:07 11° ENE 13:50:35 10° E
STARLINK-1077 4.2 13:45:30 10° NNW 13:49:25 41° NE 13:52:37 14° ESE
HJ-1C 3.5 13:47:24 10° SSE 13:50:36 53° ENE 13:53:48 10° N
Cosmos 2221 Rocket 4.1 13:47:00 10° SSE 13:51:12 40° E 13:55:26 10° NNE
Delta 198 4.0 13:45:28 10° WNW 13:51:26 86° SSW 13:55:41 15° ESE
Cosmos 1908 Rocket 3.5 13:47:09 10° N 13:51:36 75° E 13:56:03 10° S
Cosmos 1437 Rocket 4.0 13:51:29 13° SE 13:53:43 20° E 13:56:33 10° NE
STARLINK-1075 4.0 13:50:26 10° NNW 13:54:25 48° NE 13:57:25 16° ESE
NOSS 2-2 (D) 4.5 13:52:21 10° SW 13:56:11 44° WNW 13:59:36 10° N
Aureole 1 Rocket 4.3 13:51:31 10° N 13:57:38 62° ENE 14:05:19 10° SSE
ATLAS 2AS CENTAUR RB 4.3 13:48:32 10° W 13:57:43 17° SW 14:01:35 10° S
STARLINK-1093 3.8 13:55:21 10° NNW 13:59:24 55° NE 14:02:13 19° SE
SWIFT 3.1 13:56:05 10° WNW 14:00:14 50° N 14:04:18 10° ENE
GENESIS II 4.4 13:57:03 10° NNW 14:00:51 50° ENE 14:03:21 19° SE
Meteor 1-4 Rocket 4.2 13:57:56 10° SSW 14:01:07 35° W 14:04:17 10° NNW
STARLINK-1390 4.3 13:59:26 10° S 14:02:55 28° ESE 14:06:23 10° ENE
Cosmos 1743 2.8 14:00:08 10° N 14:03:55 74° W 14:07:42 10° S
CZ-2C R/B 4.2 13:59:57 10° NNE 14:04:15 39° E 14:08:37 10° S
STARLINK-1074 3.7 14:00:17 10° NNW 14:04:22 64° NE 14:07:00 21° SE
Cosmos 1023 Rocket 4.5 13:59:55 10° N 14:05:08 69° ENE 14:09:58 12° SSE
Cosmos 1190 Rocket 4.0 14:00:08 10° N 14:05:22 75° ENE 14:10:27 11° SSE
USA 186 2.6 14:06:04 22° ENE 14:06:05 22° ENE 14:08:12 10° NNE
Cosmos 2034 Rocket 4.1 14:01:29 10° N 14:07:38 80° W 14:13:48 10° S
STARLINK-1365 4.1 14:04:19 10° S 14:08:00 34° SE 14:11:42 10° ENE
Meteor 2-9 Rocket 4.4 14:02:57 10° N 14:08:02 46° E 14:12:05 16° SSE
Ariane Rocket 3.4 14:06:24 16° SE 14:10:08 45° ENE 14:14:57 10° N
SJ-11-01 4.2 14:06:07 10° SSE 14:10:51 85° ENE 14:15:31 10° N
ASC 2 Rocket 3.3 14:07:03 10° WSW 14:11:18 77° NNW 14:16:56 10° ENE
SEDSat Delta rocket 4.1 14:06:42 10° WNW 14:13:12 72° SSW 14:17:47 22° SE
Cosmos 1110 Rocket 3.9 14:08:29 10° S 14:13:37 65° ESE 14:18:44 10° NNE
Okean 3 3.5 14:09:29 10° S 14:13:45 86° W 14:18:04 10° N
STARLINK-1088 3.5 14:10:09 10° NW 14:14:17 86° NE 14:16:33 26° SE
NOSS 3-4 (A) 4.1 14:10:23 10° SSE 14:15:19 27° ESE 14:20:13 10° NE
NOSS 3-4 (C) 4.1 14:10:31 10° SSE 14:15:25 27° ESE 14:20:18 10° NE
Hubble Space Telescope 1.6 14:11:58 10° W 14:15:52 40° SSW 14:17:49 24° SSE
SOZ 4.1 14:12:33 10° NW 14:16:28 69° NE 14:17:10 41° ESE
Okean 2 Rocket 4.2 14:13:59 10° NNE 14:17:30 23° E 14:17:52 23° E
STARLINK-1115 3.6 14:15:07 10° NW 14:19:14 82° SW 14:21:18 28° SSE
Sich 1 Rocket 3.9 14:15:36 10° N 14:19:59 48° E 14:22:07 27° SE
STARLINK-1338 3.6 14:16:55 10° SSW 14:20:44 49° SE 14:24:33 10° NE
ISS -1.4 14:19:48 10° NNE 14:21:27 13° NE 14:21:43 13° NE
STARLINK-1320 2.7 14:19:01 10° SW 14:22:07 90° ESE 14:25:12 10° NE
Cosmos 304 Rocket 4.3 14:17:27 10° SSW 14:22:09 61° WNW 14:26:52 10° N
STARLINK-1322 2.7 14:19:22 10° SW 14:22:28 89° NW 14:25:34 10° NE
STARLINK-1324 2.7 14:19:40 10° SW 14:22:46 88° WNW 14:25:52 10° NE
CZ-2C R/B 3.2 14:17:31 11° SSE 14:22:48 90° NNE 14:28:29 10° NNW
STARLINK-1294 2.7 14:20:02 10° SW 14:23:05 87° NW 14:26:10 10° NE
STARLINK-1261 2.8 14:20:22 10° SW 14:23:28 86° NW 14:26:34 10° NE
STARLINK-1325 2.8 14:20:43 10° SW 14:23:48 85° WNW 14:26:54 10° NE
STARLINK-1333 2.8 14:21:05 10° SW 14:24:11 84° NW 14:27:16 10° NE
STARLINK-1076 3.7 14:20:06 10° NW 14:24:13 71° SW 14:26:06 30° SSE
STARLINK-1334 2.8 14:21:23 10° SW 14:24:29 83° NW 14:27:34 10° NE
STARLINK-1326 2.8 14:21:43 10° SW 14:24:48 82° NW 14:27:54 10° NE
STARLINK-1323 2.8 14:22:04 10° SW 14:25:10 81° NW 14:28:15 10° NE
STARLINK-1349 2.8 14:22:22 10° SW 14:25:27 80° NW 14:28:33 10° NNE
Cosmos 1331 Rocket 3.8 14:20:32 10° S 14:25:40 79° ESE 14:30:49 10° NNE
STARLINK-1336 2.9 14:22:43 10° SW 14:25:48 79° NW 14:28:54 10° NNE
STARLINK-1331 2.9 14:23:05 10° SW 14:26:10 77° NW 14:29:15 10° NNE
STARLINK-1344 2.9 14:23:23 10° SW 14:26:29 76° NW 14:29:34 10° NNE
Cosmos 1954 Rocket 4.0 14:21:23 10° N 14:26:38 65° ENE 14:29:28 27° SSE
MOS 1 Rocket 3.2 14:22:24 10° N 14:26:40 74° WNW 14:31:03 10° SSW
STARLINK-1343 2.9 14:23:45 10° SW 14:26:51 75° NW 14:29:56 10° NNE
STARLINK-1346 2.9 14:24:05 10° SW 14:27:09 74° NW 14:30:14 10° NNE
STARLINK-1328 3.0 14:24:28 10° SW 14:27:34 73° NW 14:30:39 10° NNE
STARLINK-1354 3.0 14:24:46 10° SW 14:27:51 72° NW 14:30:56 10° NNE
STARLINK-1347 3.0 14:25:06 10° SW 14:28:11 72° NW 14:31:16 10° NNE
STARLINK-1357 3.0 14:25:29 10° SW 14:28:33 70° NW 14:31:39 10° NNE
STARLINK-1335 3.1 14:25:47 10° SW 14:28:51 69° NW 14:31:56 10° NNE
ASTEX 1 3.4 14:24:09 11° S 14:28:52 82° W 14:33:46 10° N
STARLINK-1371 3.4 14:25:08 10° SSW 14:29:03 64° SE 14:32:58 10° NE
STARLINK-1092 3.9 14:25:06 10° NW 14:29:11 61° SW 14:30:53 32° SSE
STARLINK-1327 3.1 14:26:08 10° SW 14:29:12 68° NW 14:32:17 10° NNE
STARLINK-1340 3.1 14:26:27 10° SW 14:29:32 67° NW 14:32:36 10° NNE
STARLINK-1356 3.1 14:26:49 10° SW 14:29:53 66° NW 14:32:58 10° NNE
DMSP B5D2-2 4.0 14:24:54 10° NNE 14:30:09 88° E 14:35:24 10° SSW
STARLINK-1345 3.2 14:27:08 10° SW 14:30:12 66° NW 14:33:16 10° NNE
STARLINK-1355 3.2 14:27:29 10° SW 14:30:33 65° NW 14:33:38 10° NNE
STARLINK-1321 3.2 14:27:49 10° SW 14:30:53 64° NW 14:33:57 10° NNE
STARLINK-1358 3.2 14:28:13 10° SW 14:31:16 63° NW 14:34:20 10° NNE
STARLINK-1332 3.3 14:28:30 10° SW 14:31:33 62° NW 14:34:38 10° NNE
STARLINK-1348 3.3 14:28:50 10° SW 14:31:54 61° NW 14:34:57 10° NNE
STARLINK-1330 3.3 14:29:11 10° SW 14:32:14 60° NW 14:35:18 10° NNE
STARLINK-1363 3.4 14:29:30 10° SW 14:32:33 59° NW 14:35:37 10° NNE
Cosmos 1378 Rocket 4.2 14:32:49 35° E 14:32:49 35° E 14:36:42 10° NNE
Cosmos 1674 Rocket 3.7 14:31:40 38° SE 14:32:53 51° E 14:37:08 10° NNE
STARLINK-1337 3.4 14:29:53 10° SW 14:32:56 59° NW 14:35:59 10° NNE
USA 267 3.6 14:29:35 27° ESE 14:33:03 52° NE 14:39:23 10° NNW
STARLINK-1341 3.3 14:29:18 10° SSW 14:33:14 73° SE 14:37:12 10° NE
STARLINK-1342 3.4 14:30:13 10° SW 14:33:16 58° NW 14:36:19 10° NNE
STARLINK-1364 3.4 14:30:33 10° SW 14:33:36 57° NW 14:36:39 10° NNE
STARLINK-1376 3.5 14:30:53 10° SW 14:33:56 56° NW 14:36:59 10° NNE
STARLINK-1080 4.2 14:30:08 10° NW 14:34:09 52° SW 14:35:41 32° S
STARLINK-1360 3.5 14:31:14 10° SW 14:34:17 55° NW 14:37:19 10° NNE
STARLINK-1361 3.5 14:31:35 10° SW 14:34:37 55° NW 14:37:39 10° NNE
STARLINK-1367 3.6 14:31:53 10° SW 14:34:54 54° NW 14:37:56 10° NNE
STARLINK-1366 3.6 14:32:14 10° SW 14:35:16 53° NW 14:38:18 10° NNE
Meteor 1-13 Rocket 4.3 14:30:25 10° S 14:35:58 75° W 14:41:38 10° N
STARLINK-1374 3.3 14:33:30 10° SSW 14:37:27 82° SE 14:41:25 10° NE
Intelsat 5-1 Rocket 2.5 14:36:10 10° WNW 14:38:17 26° N 14:38:34 25° N
IRS-1A Rocket 4.3 14:34:14 21° SSE 14:38:18 89° ENE 14:44:02 10° NNW
Cosmos 1634 Rocket 3.9 14:32:05 10° N 14:38:24 74° E 14:42:20 24° SSE
STARLINK-1090 4.4 14:35:10 10° NW 14:39:07 45° SW 14:40:28 32° S
Cosmos 1302 Rocket 4.2 14:37:59 35° SSE 14:39:42 48° ESE 14:44:46 10° NNE
ARGOS 3.2 14:36:46 21° S 14:40:25 81° WSW 14:45:49 10° NNW
STARLINK-1339 3.4 14:37:44 10° SW 14:41:41 87° WNW 14:45:40 10° NE
SPOT 3 Rocket 4.1 14:41:12 35° E 14:41:43 36° ENE 14:46:22 10° N
ATLAS 2AS CENTAUR R/B 3.0 14:34:42 10° S 14:42:09 59° ESE 14:49:56 10° NE
Cosmos 1975 3.9 14:40:28 10° NNW 14:44:15 43° W 14:46:42 19° SSW
SJ-6B 2.5 14:45:16 76° SSE 14:45:32 85° ENE 14:49:14 10° N
STARLINK-1377 3.6 14:42:00 10° SW 14:45:57 77° NW 14:49:55 10° NNE
Cosmos 676 Rocket 4.2 14:42:48 10° NNW 14:48:03 68° WSW 14:50:41 30° S
H-2A R/B 2.9 14:44:01 14° S 14:48:05 47° W 14:53:00 10° NNW
Cosmos 1943 Rocket 2.1 14:43:08 10° SSW 14:48:38 82° WNW 14:54:11 10° NNE
STARLINK-1353 3.8 14:46:15 10° SW 14:50:12 67° NW 14:54:09 10° NNE
Milstar 3 Cent rocket 3.5 14:47:01 10° W 14:52:55 62° NNW 15:04:38 10° ENE
STARLINK-1375 4.0 14:50:35 10° SW 14:54:30 59° NW 14:58:24 10° NNE
CZ-2C R/B 3.4 14:49:11 10° N 14:54:35 53° WNW 14:59:56 10° SSW
GPS 2-12 Rocket1 2.8 14:52:11 10° W 14:56:39 82° SSW 14:56:39 82° SSW
STARLINK-1350 4.3 14:54:52 10° SW 14:58:44 51° NW 15:02:37 10° NNE
Cosmos 2180 Rocket 4.4 15:05:18 10° N 15:11:30 62° E 15:11:43 62° E
Cosmos 1833 Rocket 3.5 15:10:38 10° NNW 15:15:57 45° WSW 15:17:37 35° SSW
Cosmos 2369 Rocket 2.8 15:17:51 11° SSW 15:23:07 55° WNW 15:28:39 10° N
Skynet4D Del rocket 4.5 15:16:15 10° WSW 15:24:41 83° NNW 15:28:11 38° ENE
Nadezhda 4 Rocket 4.1 15:26:00 53° SSW 15:27:24 71° W 15:33:29 10° N
GPS 2-14 Rocket1 4.5 15:24:22 10° W 15:26:49 31° WNW 15:26:49 31° WNW
Lacrosse 5 2.4 15:23:32 10° NW 15:27:44 56° WNW 15:27:44 56° WNW
Cosmos 2082 Rocket 2.6 15:27:46 10° NNW 15:33:19 57° WSW 15:33:19 57° WSW
ATLAS CENTAUR R/B 3.3 15:39:46 30° NNW 15:39:46 30° NNW 15:42:28 10° N
Resurs 01 Rocket 3.7 15:55:14 25° NW 15:55:14 25° NW 15:57:14 10° NNW
H-2A ROCKET BODY 4.1 16:04:08 10° WNW 16:09:21 49° N 16:34:07 10° ENE
COSMOS 2455 4.2 16:14:33 33° NNW 16:14:33 33° NNW 16:18:03 10° N
ATLAS 3B CENTAUR R/B 4.1 16:56:10 10° WNW 17:07:07 43° NNW 17:07:07 43° NNW
CENTAUR R/B 4.4 17:32:27 10° NNW 17:36:50 35° NNW 17:36:50 35° NNW
SL-16 R/B 4.3 20:40:12 24° N 20:40:12 24° N 20:42:29 10° N
COSMOS 2428 4.3 21:00:41 30° ENE 21:00:41 30° ENE 21:04:18 10° NE
Cosmos 2360 Rocket 4.1 21:20:25 21° NNW 21:20:25 21° NNW 21:22:30 10° N
Meteosat 1 Rocket2 4.2 21:30:04 56° ENE 21:30:04 56° ENE 21:35:40 10° ENE
Cosmos 2333 Rocket 2.7 21:31:32 55° NNE 21:31:32 55° NNE 21:35:53 10° NNE
Cosmos 2219 Rocket 2.5 21:36:21 59° N 21:36:21 59° N 21:40:49 10° NNE
EPKM 3.9 21:24:26 10° WNW 21:40:14 79° NNE 21:43:34 10° E
CZ-3 R/B 4.4 20:45:04 10° WSW 21:46:17 74° NNW 21:58:59 10° ENE
ATLAS 5 CENTAUR R/B 2.8 21:48:27 35° NNE 21:48:27 35° NNE 21:50:55 10° NNE
USA 229 DEB 3.8 21:45:01 10° NNW 21:52:37 88° WSW 22:00:22 10° SSE
USA 229 3.8 21:45:07 10° NNW 21:52:43 89° WSW 22:00:29 10° SSE
NOSS 3-1 (C) 4.1 21:45:35 10° NNW 21:54:05 79° WSW 22:03:04 10° SSE
NOSS 3-3 (A) 3.7 21:54:00 68° SSE 21:54:30 73° ESE 22:00:19 10° NNE
NOSS 3-3 (C) 3.7 21:54:03 66° SSE 21:54:35 72° ESE 22:00:25 10° NNE
ADEOS II 4.3 21:52:03 10° NW 21:52:47 12° NW 21:52:47 12° NW
Cosmos 2263 Rocket 4.5 21:52:37 10° NW 21:52:45 11° NW 21:52:45 11° NW
PSLV R/B 4.5 21:53:54 10° NNE 21:57:50 40° E 21:58:12 40° ESE
Cosmos 158 Rocket 4.3 21:58:14 51° SE 21:59:03 58° ESE 22:03:58 10° NNE
IDEFIX/ARIANE 42P 2.7 21:54:21 10° N 21:59:02 59° NW 21:59:02 59° NW
NOSS 3-1 (A) 4.4 21:53:44 10° NNW 22:02:12 77° ENE 22:11:11 10° SSE
Meteor 2-3 Rocket 3.5 22:02:43 70° SSW 22:03:19 81° W 22:08:54 10° N
Cosmos 1500 Rocket 4.3 22:02:42 42° SE 22:03:36 49° E 22:07:54 10° NNE
ERS-2 3.6 22:05:50 31° N 22:05:50 31° N 22:07:52 10° N
Cosmos 1980 4.2 22:03:55 37° SSE 22:05:55 56° ESE 22:11:25 10° NNE
ARIANE 5 R/B 4.3 22:02:31 10° NNW 22:04:21 17° NW 22:04:21 17° NW
Cosmos 1680 Rocket 3.4 22:06:02 68° S 22:06:43 87° ESE 22:11:59 10° NNE
Cosmos 1408 Rocket 4.4 22:08:50 37° NNW 22:08:50 37° NNW 22:11:42 10° N
Delta 7925 Rocket 4.3 22:09:30 44° S 22:10:50 51° SSE 22:18:06 10° ENE
STARLINK-1064 4.3 22:10:50 46° SE 22:10:54 46° SE 22:14:53 10° NE
SL-24 R/B - RUBIN 2 4.0 22:10:05 63° SSW 22:11:01 89° WNW 22:16:57 10° NNE
Cosmos 923 Rocket 4.1 22:13:00 54° WNW 22:13:01 54° WNW 22:18:06 10° N
SL-4 R/B 4.4 22:09:49 10° N 22:13:39 26° NE 22:17:16 10° ESE
STARLINK-1041 4.0 22:15:38 53° SE 22:15:52 54° SE 22:19:54 10° NE
Cosmos 1606 2.7 22:13:59 10° N 22:17:31 77° N 22:17:31 77° N
STARLINK-1038 3.7 22:20:25 58° SSE 22:20:50 63° SE 22:24:55 10° NE
H-2A R/B 1.9 22:23:05 57° SSW 22:23:50 71° WSW 22:28:14 10° NNW
Aurora 2 Rocket 2.4 22:25:01 48° SE 22:25:01 48° SE 22:27:38 10° E
GEOS 3 Rocket 3.5 22:19:53 10° SSE 22:24:54 62° WSW 22:30:00 10° NW
GPS 2-17 Rocket1 3.3 22:24:39 41° NW 22:25:45 55° N 22:30:00 10° ENE
STARLINK-1046 3.6 22:25:11 60° S 22:25:47 73° SE 22:29:53 10° NE
Cosmos 1633 2.7 22:27:23 58° NW 22:27:23 58° NW 22:30:30 10° N
Cosmos 2239 Rocket 4.4 22:23:43 23° S 22:27:50 86° W 22:34:11 10° N
Lacrosse 5 rocket 3.8 22:30:42 10° NW 22:30:42 10° NW 22:30:44 10° NW
CZ-4B R/B 4.0 22:28:08 10° SE 22:30:22 19° ENE 22:32:38 10° NNE
STARLINK-1039 3.5 22:29:59 57° SSW 22:30:46 85° SE 22:34:54 10° NE
Ariane H10+ 4.5 22:30:02 23° S 22:31:13 24° S 22:37:16 10° ESE
Cosmos 2237 Rocket 2.1 22:28:57 33° SSW 22:31:37 84° WNW 22:37:18 10° NNE
Palapa 6 Rocket 4.3 22:29:09 20° WNW 22:34:48 80° SSW 22:42:54 10° ESE
Cosmos 1151 Rocket 3.0 22:30:35 10° NNW 22:34:53 59° W 22:36:16 39° SSW
ATLAS 2A CENTAUR R/B 3.1 22:32:11 31° SW 22:35:24 61° SSE 22:38:29 10° E
STARLINK-1045 3.5 22:34:46 51° SW 22:35:44 83° NW 22:39:52 10° NE
deb Chang Zheng 4 3.8 22:33:03 10° N 22:37:08 47° WNW 22:37:54 42° WSW
Iridium 4 Rocket 3.3 22:33:38 18° S 22:37:10 83° E 22:42:16 10° N
STARLINK-1050 3.6 22:39:34 45° WSW 22:40:43 71° NW 22:44:49 10° NNE
Sich 1 4.3 22:37:25 10° SSE 22:41:28 40° E 22:45:30 10° NNE
COSMOS 2428 4.2 22:42:43 18° WNW 22:43:22 19° WNW 22:47:16 10° NNW
STARLINK-1055 3.7 22:44:20 38° WSW 22:45:40 61° NW 22:49:45 10° NNE
Cosmos 1515 Rocket 3.4 22:41:36 10° N 22:45:56 87° W 22:50:15 10° S
Atlas Centaur 2 3.3 22:43:21 19° SSW 22:46:24 29° SSE 22:50:41 10° E
Cosmos 1346 Rocket 3.2 22:49:33 33° WSW 22:50:38 41° W 22:54:24 10° NNW
STARLINK-1022 3.9 22:49:07 33° WSW 22:50:39 53° NW 22:54:41 10° NNE
PAYLOAD A 4.3 22:47:16 10° N 22:51:52 45° WNW 22:54:36 23° SW
Cosmos 1844 Rocket 2.6 22:46:44 10° NNW 22:52:14 65° WSW 22:57:43 10° S
SL-16 R/B 3.2 22:48:36 10° S 22:53:55 44° ESE 22:59:15 10° NNE
STARLINK-1042 4.1 22:53:54 28° WSW 22:55:38 46° NW 22:59:36 10° NNE
IUS-26 SRM-1 3.6 22:56:23 26° WSW 22:58:16 79° SSE 23:11:10 10° ENE
Skynet4D Del rocket 3.8 22:53:06 12° WNW 22:58:43 56° SSW 23:04:09 10° SE
STARLINK-1056 4.3 22:58:41 24° WSW 23:00:36 40° NW 23:04:30 10° NNE
CZ-4B R/B 4.0 22:58:39 10° NNE 23:01:59 37° E 23:05:21 10° S
STARLINK-1054 4.5 23:03:28 21° WSW 23:05:35 35° NW 23:09:23 10° NNE
Cosmos 1934 Rocket 4.0 22:59:44 10° SSW 23:05:41 56° W 23:11:36 10° N
STARLINK-1444 2.2 23:08:10 10° NW 23:10:41 73° SW 23:13:20 10° SSE
STARLINK-1452 2.2 23:08:47 10° NW 23:11:18 71° SW 23:13:58 10° SSE
STARLINK-1392 2.2 23:09:36 10° NW 23:12:05 68° SW 23:14:45 10° SSE
STARLINK-1399 2.2 23:09:39 10° NW 23:12:09 68° SW 23:14:48 10° SSE
STARLINK-1393 2.2 23:09:41 10° NW 23:12:10 68° SW 23:14:49 10° SSE
STARLINK-1394 2.2 23:09:42 10° NW 23:12:11 68° SW 23:14:51 10° SSE
STARLINK-1395 2.2 23:09:44 10° NW 23:12:14 68° SW 23:14:54 10° SSE
STARLINK-1396 2.2 23:09:45 10° NW 23:12:15 67° SW 23:14:55 10° SSE
STARLINK-1414 2.2 23:09:45 10° NW 23:12:15 67° SW 23:14:55 10° SSE
STARLINK-1397 2.2 23:09:45 10° NW 23:12:15 67° SW 23:14:54 10° SSE
STARLINK-1408 2.2 23:09:48 10° NW 23:12:18 67° SW 23:14:58 10° SSE
STARLINK-1404 2.2 23:09:50 10° NW 23:12:21 67° SW 23:15:00 10° SSE
STARLINK-1416 2.2 23:09:51 10° NW 23:12:21 67° SW 23:15:00 10° SSE
STARLINK-1415 2.2 23:09:52 10° NW 23:12:22 67° SW 23:15:01 10° SSE
STARLINK-1406 2.2 23:09:54 10° NW 23:12:24 67° SW 23:15:03 10° SSE
STARLINK-1450 2.2 23:09:54 10° NW 23:12:24 67° SW 23:15:03 10° SSE
STARLINK-1401 2.2 23:09:55 10° NW 23:12:25 67° SW 23:15:05 10° SSE
STARLINK-1417 2.2 23:09:59 10° NW 23:12:29 67° SW 23:15:09 10° SSE
STARLINK-1402 2.2 23:10:01 10° NW 23:12:30 66° SW 23:15:10 10° SSE
STARLINK-1413 2.2 23:10:01 10° NW 23:12:30 66° SW 23:15:10 10° SSE
STARLINK-1419 2.2 23:10:01 10° NW 23:12:30 66° SW 23:15:10 10° SSE
STARLINK-1422 2.2 23:10:06 10° NW 23:12:36 66° SW 23:15:16 10° SSE
STARLINK-1453 2.2 23:10:07 10° NW 23:12:37 66° SW 23:15:17 10° SSE
STARLINK-1398 2.2 23:10:09 10° NW 23:12:39 66° SW 23:15:19 10° SSE
STARLINK-1420 2.2 23:10:10 10° NW 23:12:40 66° SW 23:15:19 10° SSE
STARLINK-1440 2.2 23:10:11 10° NW 23:12:42 66° SW 23:15:21 10° SSE
STARLINK-1460 2.2 23:10:13 10° NW 23:12:43 66° SW 23:15:22 10° SSE
STARLINK-1436 (VISORSAT) 2.2 23:10:12 10° NW 23:12:43 66° SW 23:15:22 10° SSE
STARLINK-1410 2.2 23:10:17 10° NW 23:12:47 66° SW 23:15:26 10° SSE
STARLINK-1423 2.2 23:10:17 10° NW 23:12:47 66° SW 23:15:27 10° SSE
STARLINK-1421 2.2 23:10:17 10° NW 23:12:48 66° SW 23:15:27 10° SSE
STARLINK-1400 2.2 23:10:18 10° NW 23:12:48 65° SW 23:15:27 10° SSE
STARLINK-1454 2.2 23:10:19 10° NW 23:12:49 65° SW 23:15:28 10° SSE
STARLINK-1458 2.3 23:10:21 10° NW 23:12:51 65° SW 23:15:31 10° SSE
STARLINK-1445 2.3 23:10:24 10° NW 23:12:54 65° SW 23:15:33 10° SSE
STARLINK-1405 2.3 23:10:26 10° NW 23:12:56 65° SW 23:15:36 10° SSE
STARLINK-1407 2.2 23:10:26 10° NW 23:12:56 65° SW 23:15:35 10° SSE
STARLINK-1446 2.3 23:10:26 10° NW 23:12:56 65° SW 23:15:36 10° SSE
STARLINK-1370 2.3 23:10:28 10° NW 23:12:58 65° SW 23:15:38 10° SSE
STARLINK-1439 2.3 23:10:29 10° NW 23:12:59 65° SW 23:15:39 10° SSE
STARLINK-1456 2.3 23:10:29 10° NW 23:12:59 65° SW 23:15:39 10° SSE
STARLINK-1457 2.3 23:10:29 10° NW 23:12:59 65° SW 23:15:39 10° SSE
STARLINK-1451 2.3 23:10:29 10° NW 23:13:00 65° SW 23:15:39 10° SSE
STARLINK-1409 2.3 23:10:30 10° NW 23:13:00 65° SW 23:15:40 10° SSE
STARLINK-1447 2.3 23:10:31 10° NW 23:13:01 65° SW 23:15:41 10° SSE
STARLINK-1455 2.3 23:10:31 10° NW 23:13:01 65° SW 23:15:41 10° SSE
STARLINK-1437 2.3 23:10:31 10° NW 23:13:01 65° SW 23:15:41 10° SSE
STARLINK-1441 2.3 23:10:33 10° NW 23:13:03 65° SW 23:15:43 10° SSE
STARLINK-1443 2.3 23:10:36 10° NW 23:13:06 65° SW 23:15:46 10° SSE
STARLINK-1351 2.3 23:10:37 10° NW 23:13:08 64° SW 23:15:48 10° SSE
STARLINK-1418 2.3 23:10:37 10° NW 23:13:08 64° SW 23:15:48 10° SSE
STARLINK-1403 2.3 23:10:38 10° NW 23:13:08 64° SW 23:15:48 10° SSE
STARLINK-1442 2.3 23:10:38 10° NW 23:13:09 64° SW 23:15:49 10° SSE
STARLINK-1434 2.3 23:10:38 10° NW 23:13:09 64° SW 23:15:49 10° SSE
STARLINK-1448 2.3 23:10:40 10° NW 23:13:11 64° SW 23:15:51 10° SSE
STARLINK-1433 2.3 23:10:41 10° NW 23:13:12 64° SW 23:15:51 10° SSE
STARLINK-1449 2.3 23:10:43 10° NW 23:13:13 64° SW 23:15:54 10° SSE
STARLINK-1438 2.3 23:10:46 10° NW 23:13:16 64° SW 23:15:56 10° SSE
Cosmos 2123 Rocket 4.4 23:07:04 10° N 23:13:16 70° E 23:19:26 10° SSE
STARLINK-1411 2.3 23:10:53 10° NW 23:13:24 64° SW 23:16:03 10° SSE
STARLINK-1412 2.3 23:10:53 10° NW 23:13:24 64° SW 23:16:04 10° SSE
Cosmos 2278 Rocket 4.5 23:09:15 10° NNE 23:14:02 28° ENE 23:18:49 10° SE
USA 234 3.7 23:08:50 10° NNE 23:15:01 48° NW 23:20:51 12° WSW
Fermi 4.2 23:14:56 11° W 23:18:35 42° SSW 23:22:28 10° SE
STARLINK-60 3.6 23:18:32 10° WNW 23:21:25 31° SW 23:24:18 10° S
CZ-2C R/B 3.6 23:17:16 10° NNW 23:21:26 25° WNW 23:25:29 10° SW
OAO 3 Rocket 3.1 23:17:54 14° SW 23:21:57 87° SSE 23:26:38 10° ENE
CZ-4B R/B 4.2 23:18:45 10° N 23:23:07 58° WNW 23:27:30 10° SSW
Cosmos 1633 Rocket 3.2 23:20:40 10° S 23:25:01 80° E 23:29:20 10° N
PEGASUS R/B 3.4 23:23:00 10° NNE 23:25:14 71° ESE 23:27:57 10° SSW
Cosmos 1666 Rocket 3.6 23:26:28 10° SSW 23:30:51 64° W 23:35:16 10° N
CCE 1 Rocket 4.2 23:27:19 10° W 23:31:29 41° NNW 23:35:07 10° NE
ALOS 2.3 23:26:59 10° N 23:31:38 72° WNW 23:36:16 10° SSW
STARLINK-1176 4.3 23:28:51 10° SSW 23:32:52 51° SE 23:36:52 10° NE
Cosmos 1605 Rocket 4.2 23:27:18 10° SSW 23:33:23 53° W 23:39:34 10° N
Spot 2 4.1 23:29:53 10° N 23:33:53 55° WNW 23:38:03 10° SSW
Cosmos 1689 Rocket 2.1 23:36:51 10° S 23:39:43 53° W 23:42:35 10° NNW
